Regional Weather Roundup
Issued by NWS

Home | Current Version | Previous Version | Graphics & Text | Print | Product List | Glossary On
Versions: 1 2 3 4 5 6 7 8 9 10 11 12 13 14 15 16 17 18 19 20 21 22 23 24 25 26 27 28 29 30 31 32 33 34 35 36 37 38 39 40 41 42 43 44 45 46 47 48 49 50
000
ASUS43 KLMK 270010
RWRKY
KENTUCKY REGIONAL WEATHER ROUNDUP
NATIONAL WEATHER SERVICE LOUISVILLE KY
800 PM EDT FRI MAY 26 2017

NOTE "FAIR" INDICATES FEW OR NO CLOUDS BELOW 12,000 FEET
WITH NO SIGNIFICANT WEATHER AND/OR OBSTRUCTIONS TO VISIBILITY.

KYZ001>023-026-027-061>063-070>075-270100-
WESTERN AND SOUTH CENTRAL KENTUCKY

CITY           SKY/WX    TMP DP  RH WIND       PRES   REMARKS
PADUCAH        CLOUDY    75  65  70 W12       29.83R
HENDERSON      CLOUDY    78  62  57 SW9       29.82R
OWENSBORO      CLOUDY    79  63  57 S7        29.81S
HOPKINSVILLE   CLOUDY    81  61  51 S6        29.84R
BOWLING GREEN  PTCLDY    82  58  43 SW12      29.85R
GLASGOW        PTCLDY    79  61  53 SW3       29.86R
$$

KYZ024-025-028>034-038-045-046-053-270100-
NORTH CENTRAL KENTUCKY

CITY           SKY/WX    TMP DP  RH WIND       PRES   REMARKS
LOUISVILLE/SDF MOCLDY    80  61  52 S12       29.83S
LOUISVILLE/LOU MOCLDY    80  61  52 S10       29.84R
FORT KNOX      CLOUDY    77  63  61 S8        29.83S
$$

KYZ035>037-039>044-047>052-055>060-089>105-270100-
NORTHEAST KENTUCKY

CITY           SKY/WX    TMP DP  RH WIND       PRES   REMARKS
LEXINGTON      CLEAR     76  61  59 S9        29.89S
COVINGTON      MOCLDY    74  62  66 S7        29.87R
FRANKFORT      CLEAR     77  61  57 S8        29.86S
$$

KYZ054-064>069-076>088-106>120-270100-
SOUTHEAST KENTUCKY

CITY           SKY/WX    TMP DP  RH WIND       PRES   REMARKS
JACKSON        CLEAR     73  59  61 CALM      29.94S
LONDON         CLEAR     76  58  53 S6        29.93S
SOMERSET       CLEAR     77  57  50 SW3       29.91F
MIDDLESBORO    CLEAR     74  60  60 CALM      29.95S
MONTICELLO     CLEAR     77  63  61 NE5       29.91F
$$




USA.gov is the U.S. government's official web portal to all federal, state and local government web resources and services.